When you browse on this site, cookies collect data to enhance your experience and personalize the content and advertising you see.
Visit our Privacy Policy to learn more. By continuing to use the site, you agree to this use of cookies and data.
  • In United Kingdom
  • List of Countries
  • For 7 days
  • Water Temperature
  • Weather Map
  • Weather Widgets
  • user-avatar
    Login

    Hourly Weather Cochabamba

    Today, 19 January, Sunday

    Time Temperature Precipitation Wind Pressure Humidity
    00:00 +16°C° 0 mm 1 mps 556 mmHg 78%
    01:00 +16°C° 0 mm 1 mps 555 mmHg 79%
    02:00 +15°C° 0 mm 1 mps 555 mmHg 79%
    03:00 +15°C° 0 mm 1 mps 555 mmHg 80%
    04:00 +15°C° 0 mm 1 mps 555 mmHg 81%
    05:00 +15°C° 0 mm 1 mps 555 mmHg 82%
    06:00 +16°C° 0 mm 1 mps 556 mmHg 79%
    07:00 +16°C° 0 mm 1 mps 556 mmHg 76%
    08:00 +17°C° 0 mm 0 mps 557 mmHg 71%
    09:00 +20°C° 0.4 mm 1 mps 558 mmHg 68%
    10:00 +21°C° 0.4 mm 1 mps 558 mmHg 66%
    11:00 +22°C° 0.4 mm 1 mps 558 mmHg 63%
    12:00 +22°C° 0.8 mm 1 mps 558 mmHg 61%
    13:00 +23°C° 0.8 mm 2 mps 557 mmHg 60%
    14:00 +23°C° 0.8 mm 2 mps 557 mmHg 59%
    15:00 +21°C° 0.7 mm 2 mps 556 mmHg 63%
    16:00 +21°C° 0.7 mm 2 mps 556 mmHg 66%
    17:00 +20°C° 0.7 mm 2 mps 555 mmHg 70%
    18:00 +20°C° 0.3 mm 1 mps 555 mmHg 74%
    19:00 +19°C° 0.3 mm 1 mps 555 mmHg 77%
    20:00 +19°C° 0.3 mm 1 mps 555 mmHg 80%
    21:00 +18°C° 0.1 mm 1 mps 555 mmHg 82%
    22:00 +18°C° 0.1 mm 1 mps 555 mmHg 84%
    23:00 +15°C° 0.1 mm 0 mps 555 mmHg 86%

    Tomorrow, 20 January, Monday

    Time Temperature Precipitation Wind Pressure Humidity
    00:00 +15°C° 0.2 mm 0 mps 555 mmHg 86%
    01:00 +15°C° 0.2 mm 0 mps 555 mmHg 86%
    02:00 +15°C° 0.2 mm 0 mps 555 mmHg 87%
    03:00 +14°C° 0.3 mm 0 mps 554 mmHg 86%
    04:00 +14°C° 0.3 mm 0 mps 554 mmHg 86%
    05:00 +14°C° 0.3 mm 0 mps 554 mmHg 86%
    06:00 +15°C° 0.2 mm 0 mps 555 mmHg 82%
    07:00 +16°C° 0.2 mm 0 mps 556 mmHg 78%
    08:00 +17°C° 0.2 mm 0 mps 556 mmHg 74%
    09:00 +18°C° 0.8 mm 0 mps 557 mmHg 72%
    10:00 +21°C° 0.8 mm 1 mps 557 mmHg 69%
    11:00 +22°C° 0.8 mm 1 mps 557 mmHg 67%
    12:00 +22°C° 1.3 mm 1 mps 557 mmHg 65%
    13:00 +23°C° 1.3 mm 2 mps 557 mmHg 63%
    14:00 +23°C° 1.3 mm 2 mps 556 mmHg 61%
    15:00 +23°C° 1 mm 2 mps 556 mmHg 62%
    16:00 +23°C° 1 mm 2 mps 555 mmHg 64%
    17:00 +21°C° 1 mm 2 mps 555 mmHg 65%
    18:00 +20°C° 0.7 mm 2 mps 554 mmHg 70%
    19:00 +20°C° 0.7 mm 1 mps 554 mmHg 76%
    20:00 +19°C° 0.7 mm 1 mps 554 mmHg 81%
    21:00 +19°C° 0.5 mm 1 mps 555 mmHg 82%
    22:00 +19°C° 0.5 mm 1 mps 555 mmHg 83%
    23:00 +18°C° 0.5 mm 1 mps 555 mmHg 84%

    Day after tomorrow, 21 January, Tuesday

    Time Temperature Precipitation Wind Pressure Humidity
    00:00 +16°C° 0.1 mm 0 mps 555 mmHg 85%
    01:00 +16°C° 0.1 mm 0 mps 554 mmHg 86%
    02:00 +15°C° 0.1 mm 0 mps 554 mmHg 87%
    03:00 +15°C° 0.1 mm 0 mps 554 mmHg 87%
    04:00 +15°C° 0.1 mm 0 mps 553 mmHg 87%
    05:00 +15°C° 0.1 mm 0 mps 553 mmHg 87%
    06:00 +15°C° 0.1 mm 0 mps 554 mmHg 83%
    07:00 +16°C° 0.1 mm 0 mps 555 mmHg 79%
    08:00 +17°C° 0.1 mm 0 mps 555 mmHg 76%
    09:00 +20°C° 0.6 mm 1 mps 556 mmHg 72%
    10:00 +21°C° 0.6 mm 1 mps 556 mmHg 69%
    11:00 +22°C° 0.6 mm 1 mps 556 mmHg 65%
    12:00 +23°C° 0.7 mm 1 mps 556 mmHg 63%
    13:00 +24°C° 0.7 mm 1 mps 555 mmHg 60%
    14:00 +24°C° 0.7 mm 1 mps 555 mmHg 57%
    15:00 +24°C° 0.8 mm 2 mps 555 mmHg 59%
    16:00 +24°C° 0.8 mm 2 mps 554 mmHg 61%
    17:00 +23°C° 0.8 mm 2 mps 553 mmHg 63%
    18:00 +21°C° 0.8 mm 2 mps 553 mmHg 68%
    19:00 +20°C° 0.8 mm 2 mps 553 mmHg 73%
    20:00 +20°C° 0.8 mm 1 mps 553 mmHg 78%
    21:00 +20°C° 0.4 mm 1 mps 554 mmHg 78%
    22:00 +19°C° 0.4 mm 1 mps 554 mmHg 79%
    23:00 +19°C° 0.4 mm 1 mps 554 mmHg 80%

    22 January, Wednesday

    Time Temperature Precipitation Wind Pressure Humidity
    00:00 +19°C° 0.6 mm 1 mps 554 mmHg 82%
    01:00 +17°C° 0.6 mm 2 mps 554 mmHg 83%
    02:00 +17°C° 0.6 mm 2 mps 553 mmHg 85%
    03:00 +18°C° 0.8 mm 1 mps 553 mmHg 85%
    04:00 +18°C° 0.8 mm 1 mps 553 mmHg 85%
    05:00 +16°C° 0.8 mm 1 mps 554 mmHg 86%
    06:00 +18°C° 0.4 mm 1 mps 554 mmHg 83%
    07:00 +18°C° 0.4 mm 1 mps 554 mmHg 80%
    08:00 +16°C° 0.4 mm 0 mps 554 mmHg 77%
    09:00 +19°C° 0.3 mm 1 mps 555 mmHg 75%
    10:00 +20°C° 0.3 mm 1 mps 555 mmHg 73%
    11:00 +19°C° 0.3 mm 2 mps 555 mmHg 70%
    12:00 +20°C° 0.6 mm 2 mps 555 mmHg 67%
    13:00 +21°C° 0.6 mm 2 mps 555 mmHg 63%
    14:00 +23°C° 0.6 mm 2 mps 555 mmHg 60%
    15:00 +21°C° 0.7 mm 2 mps 554 mmHg 65%
    16:00 +20°C° 0.7 mm 3 mps 554 mmHg 70%
    17:00 +19°C° 0.7 mm 3 mps 553 mmHg 74%
    18:00 +19°C° 0.8 mm 2 mps 553 mmHg 77%
    19:00 +19°C° 0.8 mm 1 mps 553 mmHg 80%
    20:00 +16°C° 0.8 mm 0 mps 553 mmHg 83%
    21:00 +18°C° 0.3 mm 1 mps 554 mmHg 84%
    22:00 +18°C° 0.3 mm 1 mps 554 mmHg 86%
    23:00 +16°C° 0.3 mm 2 mps 554 mmHg 87%

    23 January, Thursday

    Time Temperature Precipitation Wind Pressure Humidity
    00:00 +16°C° 0.8 mm 2 mps 554 mmHg 82%
    01:00 +15°C° 0.8 mm 2 mps 553 mmHg 77%
    02:00 +15°C° 0.8 mm 2 mps 553 mmHg 72%
    03:00 +14°C° 0 mm 2 mps 553 mmHg 72%
    04:00 +13°C° 0 mm 1 mps 552 mmHg 71%
    05:00 +13°C° 0 mm 1 mps 552 mmHg 70%
    06:00 +14°C° 0 mm 1 mps 553 mmHg 63%
    07:00 +15°C° 0 mm 1 mps 554 mmHg 57%
    08:00 +16°C° 0 mm 1 mps 555 mmHg 50%
    09:00 +18°C° 0 mm 1 mps 555 mmHg 48%
    10:00 +20°C° 0 mm 1 mps 556 mmHg 46%
    11:00 +21°C° 0 mm 1 mps 556 mmHg 44%
    12:00 +21°C° 0.1 mm 2 mps 556 mmHg 46%
    13:00 +21°C° 0.1 mm 2 mps 556 mmHg 48%
    14:00 +23°C° 0.1 mm 2 mps 556 mmHg 50%
    15:00 +23°C° 0.1 mm 2 mps 555 mmHg 50%
    16:00 +22°C° 0.1 mm 3 mps 555 mmHg 50%
    17:00 +22°C° 0.1 mm 3 mps 554 mmHg 50%
    18:00 +21°C° 0 mm 3 mps 554 mmHg 57%
    19:00 +19°C° 0 mm 2 mps 554 mmHg 64%
    20:00 +18°C° 0 mm 2 mps 554 mmHg 71%
    21:00 +17°C° 0 mm 2 mps 554 mmHg 74%
    22:00 +18°C° 0 mm 1 mps 554 mmHg 77%
    23:00 +16°C° 0 mm 1 mps 554 mmHg 80%

    24 January, Friday

    Time Temperature Precipitation Wind Pressure Humidity
    00:00 +16°C° 0.2 mm 1 mps 554 mmHg 82%
    01:00 +16°C° 0.2 mm 1 mps 554 mmHg 83%
    02:00 +14°C° 0.2 mm 0 mps 554 mmHg 85%
    03:00 +14°C° 0.1 mm 0 mps 553 mmHg 86%
    04:00 +13°C° 0.1 mm 0 mps 553 mmHg 87%
    05:00 +13°C° 0.1 mm 0 mps 553 mmHg 88%
    06:00 +14°C° 0 mm 0 mps 554 mmHg 85%
    07:00 +15°C° 0 mm 0 mps 555 mmHg 81%
    08:00 +16°C° 0 mm 0 mps 556 mmHg 78%
    09:00 +19°C° 0 mm 1 mps 556 mmHg 69%
    10:00 +21°C° 0 mm 1 mps 557 mmHg 61%
    11:00 +22°C° 0 mm 1 mps 557 mmHg 53%
    12:00 +23°C° 0 mm 2 mps 557 mmHg 48%
    13:00 +24°C° 0 mm 2 mps 557 mmHg 43%
    14:00 +25°C° 0 mm 2 mps 557 mmHg 39%
    15:00 +25°C° 0 mm 3 mps 556 mmHg 39%
    16:00 +25°C° 0 mm 4 mps 556 mmHg 39%
    17:00 +25°C° 0 mm 5 mps 555 mmHg 40%
    18:00 +22°C° 0 mm 4 mps 555 mmHg 48%
    19:00 +20°C° 0 mm 4 mps 554 mmHg 56%
    20:00 +18°C° 0 mm 3 mps 554 mmHg 64%
    21:00 +17°C° 0 mm 3 mps 554 mmHg 65%
    22:00 +17°C° 0 mm 2 mps 554 mmHg 67%
    23:00 +16°C° 0 mm 2 mps 555 mmHg 68%
    Show more